Regional Weather Roundup
Issued by NWS Bismarck, ND

Home | Current Version | Previous Version | Text Only | Print | Product List | Glossary On
Versions: 1 2 3 4 5 6 7 8 9 10 11 12 13 14 15 16 17 18 19 20 21 22 23 24 25 26 27 28 29 30 31 32 33 34 35 36 37 38 39 40 41 42 43 44 45 46 47 48 49 50
000
ASUS43 KBIS 230210
RWRBIS

NWR BROADCAST TEXT
NATIONAL WEATHER SERVICE BISMARCK ND
900 PM CDT TUE JUL 22 2014

NOTE: "FAIR" INDICATES FEW OR NO CLOUDS BELOW 12,000 FEET WITH NO
SIGNIFICANT WEATHER AND/OR OBSTRUCTIONS TO VISIBILITY.


CITY           SKY/WX    TMP DP  RH WIND       PRES   REMARKS
WILLISTON      MOCLDY    79  62  56 E12       30.19R
MINOT          CLOUDY    72  64  76 E5        30.22R
MINOT AFB      FAIR      72  64  76 E6        30.22R
BISMARCK       FAIR      73  65  75 E6        30.24R
DICKINSON      FAIR      69  59  70 SE5       30.18F
GARRISON         N/A     73  65  75 E6        30.22R
HETTINGER ARPT FAIR      68  60  75 E13       30.24S
JAMESTOWN      FAIR      70  62  76 E5        30.23R
CARRINGTON     FAIR      70  66  88 CALM      30.25R
CROSBY         FAIR      72  66  83 NE9       30.22S
HARVEY         FAIR      72  64  78 CALM      30.23R
HAZEN          FAIR      73  64  73 SE6       30.22F
MANDAN         FAIR      72  64  78 SE5       30.25S
RUGBY          FAIR      72  66  83 E5        30.22R
STANLEY        FAIR      70  66  88 E7        30.23R
TIOGA          FAIR      72  64  78 E12       30.25R
WATFORD CITY   MOCLDY    75  63  64 E8        30.17S
$$

CITY           SKY/WX    TMP DP  RH WIND       PRES   REMARKS
GRAND FORKS    FAIR      68  61  78 N7        30.20R
GRAND FORKS AF FAIR      68  61  78 N6        30.21S
DEVILS LAKE    FAIR      72  61  68 E5        30.21R
FARGO          FAIR      71  58  63 N7        30.20R
CANDO          FAIR      68  61  77 E6        30.23R
CAVALIER       FAIR      72  57  60 N3        30.21R
GRAFTON        FAIR      68  57  68 N3        30.20S
GWINNER        CLEAR     72  59  64 NE6       30.23R
LANGDON        FAIR      68  55  64 NE3       30.23S
ROLLA          FAIR      66  66 100 E5        30.26R
WALHALLA       FAIR      68  59  73 N5          N/A
$$

CITY           SKY/WX    TMP DP  RH WIND       PRES   REMARKS
ABERDEEN       FAIR      71  61  70 E6        30.21R
MOBRIDGE       FAIR      75  62  64 E7        30.21R
BUFFALO          N/A     67  63  87 E22       30.18R
RAPID CITY     FAIR      72  63  73 SE12      30.18F
GLASGOW        FAIR      80  51  36 NE13      30.17S
SIDNEY         FAIR      81  55  41 NE9       30.20R
WOLF POINT     FAIR      82  50  32 E7        30.17R
GLENDIVE       FAIR      75  59  57 E8        30.22R
MILES CITY     FAIR      76  61  59 NE15      30.17S
BAKER          FAIR      69  32  25 E12       30.23R
$$

CITY           SKY/WX    TMP DP  RH WIND       PRES   REMARKS
BILLINGS       MOCLDY    66  56  70 NE16      30.15F
GREAT FALLS    FAIR      76  54  46 NE12      30.14S
REGINA         CLOUDY    72  54  53 E8        30.24S
ESTEVAN        MOCLDY    72  59  64 E6        30.23S
$$




USA.gov is the U.S. government's official web portal to all federal, state and local government web resources and services.